TimeMST,TemperatureF,Dew PointF,Humidity,Sea Level PressureIn,VisibilityMPH,Wind Direction,Wind SpeedMPH,Gust SpeedMPH,PrecipitationIn,Events,Conditions,WindDirDegrees,DateUTC
12:51 AM,59.0,24.1,26,29.64,10.0,SE,5.8,-,N/A,,Clear,140,2013-04-08 07:51:00
1:51 AM,57.0,24.1,28,29.63,10.0,ESE,4.6,-,N/A,,Clear,110,2013-04-08 08:51:00
2:51 AM,60.1,25.0,26,29.61,10.0,East,4.6,-,N/A,,Clear,90,2013-04-08 09:51:00
3:51 AM,60.1,26.1,27,29.59,10.0,ENE,3.5,-,N/A,,Clear,70,2013-04-08 10:51:00
4:51 AM,55.0,26.1,33,29.58,10.0,ENE,4.6,-,N/A,,Clear,60,2013-04-08 11:51:00
5:51 AM,54.0,26.1,34,29.58,10.0,East,11.5,-,N/A,,Clear,90,2013-04-08 12:51:00
6:51 AM,64.0,28.0,26,29.55,10.0,ENE,9.2,-,N/A,,Clear,70,2013-04-08 13:51:00
7:51 AM,66.9,32.0,27,29.55,10.0,South,4.6,16.1,N/A,,Clear,190,2013-04-08 14:51:00
8:51 AM,72.0,35.1,26,29.52,10.0,SSE,28.8,35.7,N/A,,Clear,160,2013-04-08 15:51:00
9:51 AM,75.0,30.0,19,29.50,10.0,SSW,20.7,26.5,N/A,,Clear,200,2013-04-08 16:51:00
10:51 AM,78.1,30.0,17,29.47,10.0,South,23.0,33.4,N/A,,Unknown,190,2013-04-08 17:51:00
11:51 AM,79.0,30.0,17,29.43,10.0,South,17.3,26.5,N/A,,Partly Cloudy,180,2013-04-08 18:51:00
12:51 PM,82.0,23.0,11,29.37,10.0,SW,11.5,17.3,N/A,,Clear,230,2013-04-08 19:51:00
1:51 PM,82.9,17.1,9,29.32,10.0,Variable,6.9,25.3,N/A,,Clear,0,2013-04-08 20:51:00
2:51 PM,86.0,15.1,7,29.27,10.0,SW,21.9,29.9,N/A,,Partly Cloudy,220,2013-04-08 21:51:00
3:51 PM,84.9,19.0,9,29.25,8.0,West,28.8,38.0,N/A,,Scattered Clouds,260,2013-04-08 22:51:00
4:51 PM,81.0,17.1,9,29.27,10.0,WSW,31.1,39.1,N/A,,Clear,250,2013-04-08 23:51:00
5:51 PM,78.1,21.0,12,29.29,10.0,West,23.0,33.4,N/A,,Clear,260,2013-04-09 00:51:00
6:51 PM,73.9,26.1,17,29.29,10.0,WSW,9.2,23.0,N/A,,Clear,240,2013-04-09 01:51:00
7:51 PM,72.0,27.0,19,29.30,10.0,SW,18.4,-,N/A,,Partly Cloudy,220,2013-04-09 02:51:00
8:51 PM,66.9,26.1,21,29.31,10.0,Variable,4.6,-,N/A,,Clear,0,2013-04-09 03:51:00
9:14 PM,69.8,24.8,18,29.44,10.0,SW,13.8,23.0,N/A,,Partly Cloudy,220,2013-04-09 04:14:00
9:51 PM,68.0,26.1,21,29.32,10.0,WSW,13.8,20.7,N/A,,Mostly Cloudy,240,2013-04-09 04:51:00
10:51 PM,66.0,28.0,24,29.35,10.0,West,19.6,31.1,N/A,,Overcast,270,2013-04-09 05:51:00
11:51 PM,59.0,30.0,33,29.39,10.0,West,18.4,31.1,N/A,,Overcast,280,2013-04-09 06:51:00